Location: Burland Observatory
(39.4088°N, 105.4217°W)
Time: 23:24:28
(UTC-07:00)

Transit 2A - Visible Passes

Search period start: 12 December 2019 00:00
Search period end: 22 December 2019 00:00
Orbit: 602 x 957 km, 66.7° (Epoch: 12 December)

Date Brightness Start Highest point End Pass type
(mag) Time Alt. Az. Time Alt. Az. Time Alt. Az.
12 Dec 8.2 05:22:07 10° SSE 05:26:01 24° ESE 05:29:41 10° ENE visible
13 Dec 8.7 04:49:12 10° SE 04:52:02 16° ESE 04:54:46 10° ENE visible
13 Dec 5.8 06:30:06 10° SW 06:34:48 52° WNW 06:39:11 10° NNE visible
14 Dec 5.6 05:55:49 10° SSW 06:00:40 81° WNW 06:05:09 10° NNE visible
15 Dec 6.1 05:21:46 10° SSW 05:26:34 64° ESE 05:31:01 10° NE visible
16 Dec 6.9 04:47:58 10° S 04:52:30 40° ESE 04:56:44 10° NE visible
16 Dec 6.8 06:32:07 10° WSW 06:35:44 22° NW 06:39:12 10° N visible
17 Dec 7.7 04:17:28 24° SE 04:18:28 26° ESE 04:22:14 10° NE visible
17 Dec 6.3 05:58:12 15° WSW 06:01:29 31° NW 06:05:28 10° N visible
18 Dec 8.6 03:46:44 12° ENE 03:46:44 12° ENE 03:47:24 10° ENE visible
18 Dec 5.8 05:27:22 47° NW 05:27:22 47° NW 05:31:35 10° NNE visible
19 Dec 7.1 04:55:34 27° NNE 04:55:34 27° NNE 04:57:35 10° NNE visible
20 Dec 8.4 04:23:19 11° NNE 04:23:19 11° NNE 04:23:28 10° NNE visible
20 Dec 7.5 06:03:51 13° NNW 06:03:51 13° NNW 06:04:53 10° NNW visible
21 Dec 7.9 05:31:19 11° N 05:31:19 11° N 05:31:31 10° N visible
